Regional Weather Roundup
Issued by NWS

Home | Current Version | Previous Version | Graphics & Text | Print | Product List | Glossary Off
Versions: 1 2 3 4 5 6 7 8 9 10 11 12 13 14 15 16 17 18 19 20 21 22 23 24 25 26 27 28 29 30 31 32 33 34 35 36 37 38 39 40 41 42 43 44 45 46 47 48 49 50

000
ASUS43 KMKX 251800
RWRWI

WISCONSIN REGIONAL WEATHER ROUNDUP
NATIONAL WEATHER SERVICE MILWAUKEE/SULLIVAN WI
100 PM CDT SAT MAR 25 2017

NOTE: "FAIR" INDICATES FEW OR NO CLOUDS BELOW 12,000 FEET WITH NO
SIGNIFICANT WEATHER AND/OR OBSTRUCTIONS TO VISIBILITY.

WIZ001-002-006>008-014>016-023>028-251900-
NORTHWEST WISCONSIN

CITY           SKY/WX    TMP DP  RH WIND       PRES   REMARKS
SUPERIOR ARPT  CLOUDY    35  31  87 E16G25    30.27F WCI  25
ASHLAND        CLOUDY    37  29  72 NE12      30.27F WCI  29
6HR MIN TEMP:  33; 6HR MAX TEMP:  37;

HAYWARD        CLOUDY    40  29  64 E10G16    30.21F WCI  33
6HR MIN TEMP:  35; 6HR MAX TEMP:  40;

SIREN          CLOUDY    39  30  70 E9        30.20F WCI  33
CUMBERLAND     CLOUDY    36  30  80 E9        30.19F WCI  29
RICE LAKE      CLOUDY    38  31  76 E12       30.21S WCI  31
CHETEK         CLOUDY    37  31  79 E7        30.20S WCI  32
LADYSMITH      CLOUDY    39  32  75 E12       30.22S WCI  32
EAU CLAIRE     NOT AVBL
MENOMONIE      CLOUDY    40  32  74 NE16      30.18S WCI  31
NEW RICHMOND   CLOUDY    38  31  76 E15       30.17F WCI  30
OSCEOLA        CLOUDY    39  32  75 E10       30.21F WCI  32
$$

WIZ003>005-009-010-017-018-251900-
NORTH CENTRAL WISCONSIN

CITY           SKY/WX    TMP DP  RH WIND       PRES   REMARKS
MANITOWISH WTR CLOUDY    34  31  89 SE10G20   30.23F WCI  26
ARBOR VITAE    CLOUDY    37  32  82 E8        30.21F WCI  30
WOODRUFF       CLOUDY    37  32  82 E8        30.21F WCI  30
RHINELANDER    CLOUDY    37  31  78 E17       30.22F WCI  27
6HR MIN TEMP:  34; 6HR MAX TEMP:  37;

EAGLE RIVER    CLOUDY    35  28  78 E13       30.23F WCI  26
LAND O LAKES   CLOUDY    34  31  86 E12G18    30.26F WCI  26
PHILLIPS       CLOUDY    36  31  82 E12       30.21S WCI  27
TOMAHAWK       CLOUDY    36  30  79 NE8       30.22R WCI  29
MEDFORD        CLOUDY    36  32  86 E16G23    30.18S WCI  26
MERRILL        CLOUDY    37  32  84 E13       30.22R WCI  28
$$

WIZ029-030-035-036-043>047-251900-
CENTRAL WISCONSIN

CITY           SKY/WX    TMP DP  RH WIND       PRES   REMARKS
WAUSAU         CLOUDY    38  31  76 E14       30.18F WCI  30
6HR MIN TEMP:  34; 6HR MAX TEMP:  38;

MOSINEE        CLOUDY    37  34  87 NE20      30.19S WCI  27
MARSHFIELD     CLOUDY    39  32  76 E14       30.15F WCI  31
6HR MIN TEMP:  34; 6HR MAX TEMP:  39;

STEVENS POINT  CLOUDY    36  32  85 NE14G21   30.18F WCI  27
WAUPACA        CLOUDY    39  34  82 NE9G22    30.19F WCI  33
WAUTOMA        NOT AVBL
WISC RAPIDS    CLOUDY    39  34  82 E12G23    30.16F WCI  32
6HR MIN TEMP:  35; 6HR MAX TEMP:  39;

CAMP DOUGLAS   NOT AVBL
$$

WIZ011>013-019>022-031-037>040-048>050-251900-
NORTHEAST WISCONSIN

CITY           SKY/WX    TMP DP  RH WIND       PRES   REMARKS
ANTIGO         CLOUDY    34  32  90 E13G18    30.21S WCI  25
SHAWANO        CLOUDY    40  35  82 E14G21    30.24S WCI  32
OCONTO         CLOUDY    37  32  83 E12G20    30.26S WCI  29
STURGEON BAY   CLOUDY    37  33  85 NE16      30.25F WCI  28
6HR MIN TEMP:  35; 6HR MAX TEMP:  37;

GREEN BAY      CLOUDY    38  36  92 NE20      30.22S WCI  28
6HR MIN TEMP:  35; 6HR MAX TEMP:  38;

MANITOWOC      NOT AVBL
APPLETON       CLOUDY    37  34  87 NE17G29   30.16F WCI  28
CLINTONVILLE   CLOUDY    37  32  81 E16       30.21F WCI  28
OSHKOSH        CLOUDY    37  34  89 NE14G23   30.16S WCI  28
6HR MIN TEMP:  35; 6HR MAX TEMP:  37; 6HR PCP:  0.01;

$$

WIZ032>034-041-042-053>061-251900-
SOUTHWEST WISCONSIN

CITY           SKY/WX    TMP DP  RH WIND       PRES   REMARKS
LA CROSSE      CLOUDY    41  35  79 E9G18     30.11F
6HR MIN TEMP:  38; 6HR MAX TEMP:  41;

SPARTA         CLOUDY    38  35  89 E15G21    30.12F WCI  29
VIROQUA        CLOUDY    37  36  99 NE17      30.07F WCI  27
BOSCOBEL       LGT RAIN  41  37  86 NE12G18   30.05F
6HR MIN TEMP:  38; 6HR MAX TEMP:  41; 6HR PCP:  0.01;

PRAIRIE DU CHI CLOUDY    40  36  87 NE10      30.04S WCI  33
PLATTEVILLE    CLOUDY    40  40 100 NE21G26   30.00S WCI  30
$$

WIZ056-057-062-063-064-067-068-251900-
SOUTH CENTRAL WISCONSIN

CITY           SKY/WX    TMP DP  RH WIND       PRES   REMARKS
REEDSBURG      CLOUDY    36  36 100 NE16      30.10F WCI  27
BARABOO/DELLS  CLOUDY    36  35  95 NE17G24   30.10S WCI  26
LONE ROCK      NOT AVBL
MINERAL POINT  LGT RAIN  39  39 100 NE20      30.01R WCI  30
MADISON        LGT RAIN  39  37  92 NE17G24   30.08S FOG     WCI  30
6HR MIN TEMP:  36; 6HR MAX TEMP:  39; 6HR PCP:  0.01;

MIDDLETON      CLOUDY    39  38  95 NE20G26   30.08R WCI  30
WATERTOWN      CLOUDY    38  38 100 NE14G22   30.08F WCI  30
MONROE         LGT RAIN  37  37 100 NE18G28   30.01S WCI  27
JANESVILLE     LGT RAIN  41  41 100 E21G28    30.05R FOG
$$

WIZ051-052-058>065-066-070>072-251900-
SOUTHEAST WISCONSIN

CITY           SKY/WX    TMP DP  RH WIND       PRES   REMARKS
MILWAUKEE      DRIZZLE   39  36  89 NE12      30.13R WCI  32
6HR MIN TEMP:  38; 6HR MAX TEMP:  39; 6HR PCP:  0.02;

WAUKESHA       CLOUDY    36  36 100 NE16G28   30.11F FOG     WCI  26
MILWAUKEE/TIMM LGT RAIN  37  34  87 NE10G20   30.13F WCI  30
RACINE         RAIN      39  36  89 NE10      30.13R FOG     WCI  32
6HR MIN TEMP:  38; 6HR MAX TEMP:  39; 6HR PCP:  0.08;

KENOSHA        RAIN      39  37  92 NE20      30.09S FOG     WCI  29
6HR MIN TEMP:  39; 6HR MAX TEMP:  40; 6HR PCP:  0.20;

FOND DU LAC    CLOUDY    39  33  79 E17       30.15F WCI  30
6HR MIN TEMP:  36; 6HR MAX TEMP:  39;

SHEBOYGAN      CLOUDY    37  34  89 NE20      30.16F WCI  27
6HR MIN TEMP:  36; 6HR MAX TEMP:  37; 6HR PCP: TRACE;

WEST BEND      CLOUDY    36  36 100 NE13      30.14S WCI  27
JUNEAU         CLOUDY    37  35  92 NE13G21   30.12S WCI  29
$$

LSZ147-162-251900-
LAKE SUPERIOR

STATION/POSITION TIME  TEMP    WIND        PRES    WAVE
                       AIR SEA DIR/SP/G            HT/PER
                 (UTC) (F)     (DEG/KT/KT) (MB)    (FT/S)
DEVILS ISLAND    1700   33      70/ 23/ 26 1027.3F
PORT WING        1740   35      40/ 19/ 23 1025.4S
SAXON HARBOR     1730   34      40/ 10/ 15 1024.7F
$$

LMZ867-665-643>646-251900-
LAKE MICHIGAN

STATION/POSITION TIME  TEMP    WIND        PRES    WAVE
                       AIR SEA DIR/SP/G            HT/PER
                 (UTC) (F)     (DEG/KT/KT) (MB)    (FT/S)
CHAMBERS ISLAND  1740   34      40/ 14/ 21 1025.1S
NORTHPORT PIER   1740   34      70/ 18/ 21 1025.7F
SISTER BAY       1706   37     110/ 14/ 25   N/A
KEWAUNEE LAKESHO 1730   37      50/ 13/ 19 1023.1S
SHEBOYGAN LAKESH 1700   37      30/ 18/ 20 1022.3F
PORT WASHINGTON  1730   38      40/ 15/ 20 1022.0F
MILWAUKEE LAKESH 1730   37      30/ 17/ 19   N/A
KENOSHA   LAKESH 1700   38      50/ 17/ 19 1019.0
$$

TC  - TEMPERATURE IN CELSIUS
VSB - VISIBILITY IN STATUTE MILES
WCI - WIND CHILL INDEX
HX  - HEAT INDEX





USA.gov is the U.S. government's official web portal to all federal, state and local government web resources and services.